Weather in Tokur

Russia / Amur Oblast     53°08′14″N   132°53′17″E
temp.,
°C
wind,
m/s
gust,
m/s
humid.,
%
clouds,
%
prec.,
mm/h
press.,
hPa
HPBL,
m
29 june, wed
wed2900:00+14ese009293 0.1 100210
03:00+13se1195100 0.4 100310
06:00+16e118356 0.0 1003117
09:00+22nne115488 0.0 1004847
12:00+27e114092 0.0 10032399
15:00+16nnw3494100 7.7 1005140
18:00+17ne1288100 6.2 1006113
21:00+13sse119231 6.2 100811
30 june, thu
thu3000:00+13e11910 0.0 100910
03:00+12se11921 0.0 101010
06:00+16se11860 0.0 101180
09:00+24ssw11520 0.0 1010724
12:00+28sw12381 0.0 10092059
15:00+26wnw2245100 0.0 10081411
18:00+22sw116299 0.0 100934
21:00+18s11735 0.0 101011
1 july, fri
fri100:00+16s118142 0.0 101114
03:00+14s22864 0.0 101219
06:00+18s22710 0.0 1012100
09:00+25wsw23510 0.0 10111034
12:00+28wsw443778 0.0 10092673
15:00+24nw155681 0.0 1008351
18:00+22wsw1163100 0.0 100812
21:00+19ssw11741 0.0 100911
2 july, sat
sat200:00+16s11830 0.0 100914
03:00+16ssw228399 0.0 100923
06:00+18s228011 0.0 100963
09:00+26wsw23485 0.0 10071281
12:00+28wnw333698 0.0 10052825
15:00+23wsw115999 0.0 100563
18:00+26ssw12471 0.0 1004435
21:00+19ssw11719 0.0 100611
3 july, sun
sun300:00+16e118082 0.0 100611
03:00+16se1184100 0.0 100611
06:00+19e117354 0.0 100691
09:00+26ene115260 0.0 1005772
12:00+30e123670 0.0 10032499
15:00+26n335241 0.0 10031293
18:00+18ssw2495100 1.9 1005131
21:00+17s2298100 5.2 100752